Date,TemperatureHighF,TemperatureAvgF,TemperatureLowF,DewpointHighF,DewpointAvgF,DewpointLowF,HumidityHigh,HumidityAvg,HumidityLow,PressureMaxIn,PressureMinIn,WindSpeedMaxMPH,WindSpeedAvgMPH,GustSpeedMaxMPH,PrecipitationSumIn
2013-1-16,26,22,19,20,18,11,91,84,54,0.00,40.00,9,-112,13,0.00
2013-1-17,20,17,15,18,14,11,90,88,83,0.00,40.00,4,-663,6,0.00
2013-1-18,15,6,-2,12,2,-6,86,82,76,0.00,40.00,2,-124,7,0.00
2013-1-19,24,16,7,16,10,3,88,77,50,0.00,40.00,9,2,16,0.00
2013-1-20,27,24,18,22,16,7,90,72,51,0.00,40.00,16,3,22,0.00
2013-1-21,25,15,9,21,12,5,92,88,84,0.00,40.00,7,2,10,0.00
2013-1-22,28,25,22,24,22,20,91,88,81,0.00,40.00,6,2,9,0.00
2013-1-23,35,28,17,26,24,15,93,84,66,0.00,40.00,16,4,28,0.00
2013-1-24,35,25,14,25,19,11,93,78,63,0.00,40.00,10,2,12,0.00
2013-1-25,31,18,1,30,11,-6,96,72,55,0.00,40.00,22,7,31,0.00
2013-1-26,3,-6,-16,-5,-14,-22,77,69,53,0.00,40.00,5,2,9,0.00
2013-1-27,0,-10,-19,-13,-20,-27,76,61,41,0.00,40.00,14,4,22,0.00
2013-1-28,6,-3,-13,-5,-15,-22,68,57,35,0.00,40.00,17,6,28,0.00
2013-1-29,12,8,3,4,-3,-11,69,61,48,0.00,40.00,16,5,28,0.00
2013-1-30,34,19,12,20,12,3,87,74,52,0.00,40.00,24,5,32,0.00
2013-1-31,33,30,26,31,27,24,96,92,85,0.00,40.00,6,2,9,0.00
2013-2-1,28,24,20,27,22,18,95,93,91,0.00,40.00,5,2,11,0.00
2013-2-2,35,28,20,26,23,18,93,83,57,0.00,40.00,21,6,30,0.00
2013-2-3,37,33,28,27,25,22,89,74,60,0.00,40.00,21,7,32,0.00
2013-2-4,41,37,29,28,25,22,88,62,50,0.00,40.00,19,11,27,0.00
2013-2-5,36,27,17,22,18,10,86,68,49,0.00,40.00,14,2,22,0.00
2013-2-6,26,23,15,24,20,10,92,88,77,0.00,40.00,6,2,9,0.00
2013-2-7,32,26,20,24,18,13,91,72,50,0.00,40.00,23,8,28,0.00
2013-2-8,32,26,24,24,20,12,93,77,54,0.00,40.00,6,-19,8,0.00
2013-2-9,43,39,24,32,25,17,93,59,49,0.00,40.00,31,18,49,0.00
2013-2-10,42,38,32,32,30,29,94,75,60,0.00,40.00,36,14,71,0.00
2013-2-11,32,26,19,30,21,14,95,81,64,0.00,40.00,12,4,19,0.00
2013-2-12,21,19,19,15,14,14,83,80,78,0.00,40.00,2,0,6,0.00
2013-2-13,36,28,22,21,19,16,90,69,49,0.00,40.00,28,8,41,0.00
2013-2-14,40,34,30,29,20,15,95,56,44,0.00,40.00,47,20,73,0.00
2013-2-15,30,28,24,29,25,15,95,90,67,0.00,40.00,9,3,12,0.00
2013-2-16,24,22,20,20,15,11,84,73,59,0.00,40.00,9,3,12,0.00
2013-2-17,26,22,18,22,18,13,89,84,77,0.00,40.00,17,5,23,0.00
2013-2-18,18,14,2,14,7,-2,84,77,59,0.00,40.00,17,4,23,0.00
2013-2-19,16,5,-1,6,0,-6,84,78,60,0.00,40.00,6,1,12,0.00
2013-2-20,25,18,13,14,12,5,86,75,60,0.00,40.00,6,2,12,0.00
2013-2-21,25,20,13,15,12,8,87,70,56,0.00,40.00,7,2,11,0.00
2013-2-22,26,22,19,19,17,13,89,80,66,0.00,40.00,11,3,14,0.00
2013-2-23,30,22,14,19,13,9,85,70,46,0.00,40.00,22,6,29,0.00
2013-2-24,32,26,19,23,17,12,83,69,54,0.00,40.00,11,3,16,0.00
2013-2-25,36,30,15,15,12,10,83,49,37,0.00,40.00,22,15,32,0.00
2013-2-26,38,34,31,12,9,7,43,35,29,0.00,40.00,24,4,32,0.00
2013-2-27,32,31,30,11,9,8,42,38,35,0.00,40.00,24,20,32,0.00